Regional Weather Roundup
Issued by NWS Newport/Morehead, NC

Current Version | Previous Version | Graphics & Text | Print | Product List | Glossary Off
Versions: 1 2 3 4 5 6 7 8 9 10 11 12 13 14 15 16 17 18 19 20 21 22 23 24 25 26 27 28 29 30 31 32 33 34 35 36 37 38 39 40 41 42 43 44 45 46 47 48 49 50

000
ASUS42 KMHX 060713
RWRMHX
WEATHER ROUNDUP FOR EASTERN NORTH CAROLINA
NATIONAL WEATHER SERVICE NEWPORT/MOREHEAD CITY NC
200 AM EST SAT FEB 06 2016

NOTE: "FAIR" INDICATES FEW OR NO CLOUDS BELOW 12,000 FEET
WITH NO SIGNIFICANT WEATHER AND/OR OBSTRUCTIONS TO VISIBILITY

NCZ015>017-031-032-045>047-102-103-060800-
NORTH COAST

CITY           SKY/WX    TMP DP  RH WIND       PRES   REMARKS
EDENTON        CLEAR     32  30  93 CALM      30.42S
ELIZABETH CITY CLEAR     30  25  81 NW5       30.42R
KITTY HAWK     MOSUNNY   36  26  65 CALM      30.39R
MANTEO         CLEAR     37  27  66 N6        30.41R

$$

NCZ045>047-081-094-103-104-060800-
CENTRAL COAST

CITY           SKY/WX    TMP DP  RH WIND       PRES   REMARKS
FRISCO         PTCLDY    40  26  57 N8        30.40R
SWANQUARTER      N/A     32 N/A N/A NW1       30.39S

$$

NCZ095-097-098-100-101-060800-
SOUTHERN COAST

CITY           SKY/WX    TMP DP  RH WIND       PRES   REMARKS
BEAUFORT       CLEAR     34  32  92 NE3       30.40F
CEDAR ISLAND     N/A     43 N/A N/A VRB9G15   30.44S
JACKSONVILLE   PTCLDY    31  29  92 CALM      30.40F FOG
PINEY ISLAND   SUNNY    N/A N/A N/A N7        30.40S
WILMINGTON     CLEAR     33  30  88 CALM      30.40S


$$

NCZ011>013-027>030-043-044-078>080-089-090>093-098-060800-
COASTAL PLAIN

CITY           SKY/WX    TMP DP  RH WIND       PRES   REMARKS
AHOSKIE        CLEAR     28  26  91 CALM      30.42F
CLINTON        CLEAR     31  31  99 CALM      30.41S
ELIZABETHTOWN  CLEAR     32  29  89 CALM      30.40S
GOLDSBORO      CLEAR     30  30 100 CALM      30.39F
GREENVILLE     CLEAR     30  30 100 CALM      30.42S FOG
HAVELOCK       CLEAR     33  30  88 CALM      30.41S
KENANSVILLE      N/A     29  29 100 CALM      30.41F
KINSTON        CLEAR     29  29  98 CALM      30.41F
NEW BERN       CLEAR     34  30  85 CALM      30.42S
RICHLANDS      PTCLDY    28  25  86 CALM      30.40F
ROCKY MOUNT    CLEAR     28  27  96 CALM      30.41F FOG
WASHINGTON     CLEAR     30  28  92 CALM      30.42S
WHITEVILLE     PTCLDY    32  30  94 CALM      30.38F

$$

AMZ130-135-150-152-154-156-158-170-250-252-270-ANZ085-086-088-633-658-670-060800-
MARINE OBSERVATIONS

STATION/POSITION TIME  TEMP    WIND        PRES    WAVE   SWELL
                       AIR SEA DIR/SP/G            HT/PER HT/PER
                 (UTC) (F)     (DEG/KT/KT) (MB)    (FT/S) (FT/S)
CHESAPEAKE LIGHT 0700   39      10/ 12/ 14 1030.1
64 E VA BEACH    0650   43 53   10/ 12/ 17 1028.3    8/10   7/10
DUCK             0600   41 45   20/ 13/ 16 1028.5
2 E DUCK         0611      45                N/A     5/11   2/11
OREGON INLET     0600   39 46  340/  6/  9 1029.2
13E OREGON INLT  0700      47                N/A     7/11   3/11
HATTERAS CG      0600   43 54   10/ 11/ 14 1028.6
DIAMOND BUOY     0650   45 73   20/ 14/ 19 1029.0    8/10   7/10
CAPE LOOKOUT     NOT AVBL
BEAUFORT LAB     0600   39 52   30/  3/  3 1028.5
30 SE NEW RVR IN 0608   46 64              1027.8
30 SE NEW RVR IN 0625      65                N/A     4/ 7   2/11
27 SE WRIGHTSVLE 0608   48     360/ 12/ 21 1028.2
5 SE WRIGHTSVLE  0608   46 54   50/ 14/ 19 1029.3
225 S CAPE HAT   0650   58 69   40/ 16/ 19   N/A    10/11   8/11
41 SE CHARLESTON 0650   52 67   40/ 12/ 17 1027.2    4/ 6   2/ 8

$$



USA.gov is the U.S. government's official web portal to all federal, state and local government web resources and services.